SCP
0 0 0 0 0 0 0 0 0 0 0 0 0 0 0 0 0 0 0 0 0 0 0 0 0 0 0 0 0 0 0 0 0 0 0 0 0 0 0 0 0 0 0 0
0 0 0 0 0 0 0 0 0 0 0 0 0 0 -0 0 0 0 0 0 0 0 0 0 0 0 0 0 0 0 0 0 0 0 0 0 0 0 0 0 0 0 0 0
0 0 0 0 0 0 0 0 0 0 0 0 0 -0 -0 0 0 0 0 0 0 0 0 0 0 0 0 0 0 0 0 0 0 0 0 0 0 0 0 0 0 0 0 0
0 0 0 0 0 0 0 0 0 0 0 0 -0 -0 -0 0 0 0 0 0 0 0 0 0 0 0 0 0 0 0 0 0 0 0 0 0 0 0 0 0 0 0 0 0
0 0 0 0 0 0 0 0 0 0 0 0 -0 -0 -0 0 0 0 0 0 0 0 0 0 0 0 0 0 0 0 0 0 0 0 0 0 0 0 0 0 0 0 0 0
0 0 0 0 0 0 0 0 0 0 0 0 -0 -0 0 0 0 0 0 0 0 0 0 0 0 0 0 0 0 0 0 0 0 0 0 0 0 0 0 0 0 0 0 0
0 0 0 0 0 0 0 0 0 0 0 -0 -0 -0 -0 0 0 0 0 0 0 0 0 0 0 0 0 0 0 0 0 0 0 0 0 0 0 0 0 0 0 0 0 0
0 0 0 0 -0 0 0 0 0 0 0 -0 -0 -0 -0 0 0 0 0 0 0 0 0 0 0 0 0 0 0 0 0 0 0 0 0 0 0 0 0 0 0 0 0 0
0 0 0 0 -0 -0 0 0 0 0 -0 -0 -0 -0 -0 -0 -0 0 0 0 0 0 0 0 0 0 0 0 0 0 0 0 0 0 0 0 0 0 0 0 0 0 0 0
0 0 0 -0 -0 0 0 0 0 0 -0 -0 -0 -0 0 0 0 0 0 0 0 0 0 0 0 0 0 0 0 0 0 0 0 0 0 0 0 0 0 0 0 0 0 0
0 0 0 0 0 0 0 0 0 0 -0 -0 -0 -0 0 0 0 0 0 0 0 0 0 0 0 0 0 0 0 0 0 0 0 0 0 0 0 0 0 0 0 0 0 0
0 0 0 0 0 0 0 0 0 0 0 -0 -0 0 0 0 0 0 0 0 0 0 0 0 0 0 0 0 0 0 0 0 0 0 0 0 0 0 0 0 0 0 0 0
0 0 0 0 0 0 0 0 0 0 0 -0 -0 0 0 0 0 0 0 0 0 0 0 0 0 0 0 0 0 0 0 0 0 0 0 0 0 0 0 0 0 0 0 0
0 0 0 0 0 0 0 0 0 0 0 -0 -0 0 0 0 0 0 0 0 0 0 0 0 0 0 0 0 0 0 0 0 0 0 0 0 0 0 0 0 0 0 0 0
0 0 0 0 0 0 0 0 0 0 -0 -0 -0 0 0 0 0 0 0 0 0 0 0 0 0 0 0 0 0 0 0 0 0 0 0 0 0 0 0 0 0 0 0 0
0 0 0 0 0 0 0 0 0 0 -0 -0 -0 0 0 0 0 0 0 0 0 0 0 0 0 0 0 0 0 0 0 0 0 0 0 0 0 0 0 0 0 0 0 0
0 0 0 0 0 0 0 0 0 -0 -0 -0 0 0 0 0 0 0 -0 0 0 0 0 0 0 0 0 0 0 0 0 0 0 0 0 0 0 0 0 0 0 0 0 0
0 0 0 0 0 0 0 0 0 0 0 0 0 0 0 0 0 -0 -0 0 0 0 0 0 0 0 0 0 0 0 0 0 0 0 0 0 0 0 0 0 0 0 0 0
0 0 0 0 0 0 0 0 0 0 0 0 0 0 0 0 0 0 -0 0 0 0 0 0 0 0 0 0 0 0 0 0 0 0 0 0 0 0 0 0 0 0 0 0
0 0 0 0 0 0 0 0 0 0 0 0 0 0 0 0 0 0 0 0 0 0 0 0 0 0 0 0 0 0 0 0 0 0 0 0 0 0 0 0 0 0 0 0
0 0 0 0 0 0 0 0 0 0 0 0 0 0 -0 0 0 0 0 0 0 0 0 0 0 0 0 0 0 0 0 0 0 0 0 0 0 0 0 0 0 0 0 0
0 0 0 0 0 0 0 0 0 0 0 0 0 0 0 0 0 0 0 0 0 0 0 0 0 0 0 0 0 0 0 0 0 0 0 0 0 0 0 0 0 0 0 0
0 0 0 0 0 0 0 0 0 0 0 0 0 0 0 0 0 0 0 0 0 0 0 0 0 0 0 0 0 0 0 0 0 0 0 0 0 0 0 0 0 0 0 0
0 0 0 0 0 0 0 0 0 0 0 0 0 0 0 0 0 0 0 0 0 0 0 0 0 0 0 0 0 0 0 0 0 0 0 0 0 0 0 0 0 0 0 0
0 0 0 0 0 0 0 0 0 0 0 0 0 0 0 0 0 0 0 0 0 0 0 0 0 0 0 0 0 0 -0 0 0 0 0 0 0 0 0 0 0 0 0 0
0 0 0 0 0 0 0 0 0 0 0 0 0 0 0 0 0 0 0 0 0 0 0 0 0 0 0 0 0 -0 -0 -0 0 0 0 0 0 0 0 0 0 0 0 0
0 0 -0 0 0 0 0 0 0 0 0 0 0 0 0 0 0 0 0 0 0 0 0 0 0 0 0 0 -0 -0 -0 -0 0 0 0 0 0 0 0 0 0 0 0 0
Wind_Speed
4 4 3 5 7 8 10 10 9 9 9 10 7 6 5 4 3 3 3 3 4 4 3 3 3 3 3 2 2 2 2 2 3 3 3 2 3 3 3 3 4 3 3 4
3 3 4 7 9 10 10 9 10 8 12 9 5 4 5 5 5 5 5 5 5 5 4 4 4 4 3 3 3 2 3 3 3 2 2 3 3 3 3 3 3 3 3 4
3 2 3 10 11 12 8 8 9 13 13 4 4 6 7 6 6 6 6 6 6 5 5 5 5 5 4 4 3 3 3 3 3 2 3 3 3 3 3 3 3 3 4 4
1 1 8 9 3 8 8 9 10 8 7 6 8 6 6 5 6 6 6 5 5 5 5 5 4 4 3 3 3 3 3 3 3 3 3 3 3 3 3 3 3 3 4 4
3 4 9 8 3 5 6 8 9 10 9 7 3 3 5 5 6 6 6 6 5 5 5 4 4 4 3 3 3 3 4 4 3 3 3 3 3 3 3 3 3 3 3 4
3 4 8 7 3 3 3 6 5 7 8 6 2 3 6 4 3 4 4 3 3 3 3 3 4 3 3 4 4 4 4 4 3 3 3 3 3 3 3 3 3 3 3 3
5 6 10 6 2 4 4 7 3 5 5 5 6 8 4 3 3 3 3 3 3 3 3 4 3 3 4 4 5 4 3 3 3 3 3 3 2 2 2 3 3 3 3 3
5 6 10 3 5 7 7 2 2 2 3 4 5 5 4 3 3 3 3 2 2 2 3 3 3 3 4 4 4 2 2 2 3 2 2 2 1 2 2 2 2 3 3 3
9 9 5 4 6 5 3 3 3 3 3 3 4 4 4 4 4 3 3 3 2 2 3 2 3 3 4 4 2 2 2 2 2 2 2 1 1 2 2 2 2 2 2 3
5 8 6 6 5 4 4 4 4 4 3 4 4 5 5 4 4 3 3 3 2 2 3 3 2 2 3 3 2 2 2 2 2 1 1 1 1 2 2 2 2 2 3 3
6 7 5 6 7 7 5 4 4 4 4 5 5 5 5 4 4 4 3 3 2 3 3 3 2 2 2 2 2 2 2 2 2 1 1 1 1 2 2 2 3 3 3 3
9 7 6 7 5 4 5 6 6 5 4 4 5 6 5 5 4 3 3 3 3 3 3 3 2 2 2 2 2 2 2 2 1 1 1 1 1 2 3 3 5 5 5 5
7 5 6 6 5 4 5 6 5 5 5 5 4 5 4 4 3 3 3 3 4 4 3 3 2 2 2 1 2 2 2 2 2 1 1 1 1 1 2 3 4 4 5 5
6 3 5 5 5 5 5 4 4 4 4 4 4 3 3 3 3 3 4 4 3 3 3 3 2 3 2 2 2 2 2 2 2 2 1 1 1 1 1 2 2 3 4 5
7 6 6 5 4 3 3 2 2 3 3 3 3 3 3 3 4 4 4 3 2 2 3 2 3 3 2 2 2 2 2 1 1 1 1 1 1 1 1 1 2 2 3 3
5 4 4 5 6 5 3 3 4 5 4 4 4 4 4 4 4 3 3 3 3 3 3 3 3 2 2 2 2 2 2 2 2 1 1 1 1 1 1 1 1 2 2 3
4 5 5 5 5 5 5 5 5 5 4 4 5 4 3 2 2 2 3 2 3 3 3 3 3 2 2 2 3 2 2 2 2 1 1 1 1 1 1 1 1 2 2 3
6 6 6 5 5 5 5 5 5 5 4 4 3 3 3 3 4 3 2 1 1 1 2 3 2 2 2 2 2 2 2 2 2 1 1 1 1 1 1 1 1 2 2 3
5 5 5 5 5 5 5 5 5 4 3 3 3 4 4 4 3 3 2 2 2 2 2 2 3 2 2 2 2 2 2 2 1 1 1 1 1 1 1 1 1 2 2 2
4 4 4 4 4 4 4 4 3 3 3 3 3 2 2 3 3 3 3 3 3 3 2 2 3 2 2 3 3 2 2 2 2 1 1 1 1 1 1 1 1 2 2 2
3 3 3 3 3 3 3 3 3 3 2 3 3 4 3 3 3 3 3 2 2 2 3 3 2 2 2 3 3 2 2 2 2 2 1 1 1 1 1 1 1 2 2 2
3 3 3 2 2 2 2 2 2 2 2 2 2 2 2 2 2 2 3 3 2 3 2 2 2 3 3 3 2 2 2 2 2 2 1 1 1 1 1 1 2 2 2 2
3 2 2 2 2 2 2 1 2 2 3 3 3 3 3 2 3 3 2 2 2 3 2 2 3 5 5 3 2 2 2 2 2 2 1 1 1 1 1 2 2 2 2 2
2 2 2 1 1 1 1 1 1 1 1 1 2 2 2 2 1 1 1 2 2 2 2 3 5 5 4 2 2 2 2 2 2 2 1 1 1 1 1 1 2 2 2 2
2 1 1 1 1 1 1 1 1 1 1 0 0 0 1 1 1 1 1 2 2 3 2 3 4 4 3 2 2 2 2 2 2 2 2 1 1 1 1 1 1 2 2 2
1 1 2 2 2 1 1 1 1 1 1 1 0 0 1 1 1 1 1 1 2 2 2 1 2 2 2 2 2 2 2 2 1 1 1 1 1 1 1 1 2 1 1 2
1 1 0 0 0 1 1 1 1 1 1 1 1 0 1 1 1 1 1 1 1 1 1 1 1 1 1 1 1 1 1 1 1 1 1 1 1 1 1 1 1 1 1 1
Wind_Direction
247 254 210 221 222 205 206 209 213 233 235 250 242 236 245 247 245 240 237 233 228 230 233 230 233 235 226 228 223 218 217 233 246 256 261 264 272 274 274 269 269 266 271 273
274 262 244 255 243 223 224 225 233 251 261 254 248 237 248 246 237 237 240 239 237 235 233 229 229 232 231 232 234 223 225 239 249 257 265 268 271 274 278 277 272 270 270 270
252 283 312 263 231 211 212 213 202 228 244 245 248 243 240 240 232 232 237 240 237 231 228 229 228 224 222 225 231 227 232 240 243 248 261 269 277 284 276 274 269 271 269 267
202 75 242 247 223 196 212 235 219 233 248 236 238 248 254 232 222 233 236 237 240 237 238 235 228 224 222 220 218 225 232 236 241 243 256 269 275 274 275 275 277 273 273 273
172 230 272 286 237 181 195 252 222 225 244 248 254 299 277 239 213 221 228 231 232 229 231 230 227 216 208 219 221 224 230 234 239 238 249 262 269 274 279 281 286 282 278 276
178 210 243 251 231 176 125 275 239 209 230 233 183 247 263 243 230 242 248 243 237 231 227 225 225 202 197 218 222 229 234 238 238 234 240 252 261 275 283 280 282 287 290 287
204 231 260 252 198 127 178 246 243 201 216 200 202 223 250 265 257 250 253 252 236 222 224 226 215 194 206 220 231 238 240 240 239 239 239 245 256 269 278 287 298 299 298 298
181 215 250 210 145 187 219 238 215 212 209 210 232 256 265 264 263 264 267 263 236 227 240 235 206 194 216 231 239 235 229 231 239 243 243 247 245 271 280 281 295 300 304 307
197 219 251 198 204 229 215 221 230 223 227 216 236 252 258 256 258 262 259 252 240 228 246 248 223 203 218 238 224 216 222 231 241 248 244 237 231 255 278 275 278 290 294 298
244 257 258 253 254 260 234 234 244 228 226 218 232 247 256 257 257 258 256 249 236 221 237 251 247 238 226 227 207 198 217 233 234 229 249 256 249 241 249 261 270 278 285 291
248 267 285 266 240 242 251 255 257 247 233 226 227 244 245 248 251 251 255 250 229 224 235 247 249 246 237 219 189 198 216 220 224 219 220 259 274 262 260 257 258 270 276 280
229 226 217 251 246 237 241 249 243 237 249 243 226 238 245 246 245 244 246 242 240 237 237 244 240 247 241 213 191 189 204 207 209 212 222 234 273 307 296 284 297 300 300 299
232 233 230 254 263 240 235 244 240 231 234 248 244 233 239 246 246 242 244 238 233 234 233 230 229 240 243 220 201 197 199 204 204 207 213 229 251 270 303 318 312 310 313 314
237 231 251 246 247 246 244 250 250 245 242 238 241 242 240 245 247 242 241 239 233 226 224 220 222 240 241 216 204 200 192 205 202 203 213 226 244 260 271 290 311 318 321 326
245 230 236 250 255 255 244 237 249 256 251 252 242 240 236 239 246 247 247 235 217 213 218 216 222 243 236 207 194 186 185 189 188 191 211 228 247 264 275 284 295 309 320 325
251 248 240 243 248 252 247 236 239 250 251 253 252 250 245 243 246 247 236 205 198 215 222 221 228 233 219 194 179 175 186 198 177 179 192 209 233 255 274 280 288 298 306 313
220 241 239 248 250 252 246 238 234 242 244 245 246 249 245 238 237 240 238 227 222 224 220 220 229 225 200 186 177 174 173 185 184 173 194 210 227 247 259 272 282 288 293 307
227 232 226 226 233 242 253 251 243 241 239 242 241 229 221 216 224 234 230 212 212 236 237 229 218 201 193 186 176 167 165 171 175 184 193 209 233 252 257 272 283 291 301 306
235 237 240 238 235 234 239 242 242 238 236 222 217 224 226 225 222 218 197 187 200 227 245 224 207 185 184 190 164 158 161 165 172 185 187 213 233 264 266 276 283 288 298 308
241 240 243 249 242 231 237 240 236 235 226 205 205 216 228 229 209 194 191 211 225 225 213 203 184 179 186 180 162 163 167 169 173 179 181 197 220 240 253 268 277 285 293 297
250 249 248 247 251 250 242 231 222 224 218 195 199 213 221 222 197 180 184 227 248 203 195 193 180 180 174 167 165 162 165 166 171 183 192 201 214 233 250 267 273 282 290 297
250 249 251 248 248 268 270 242 219 210 204 207 209 201 191 193 187 194 212 220 219 199 179 179 178 175 165 159 156 154 157 162 170 178 186 193 205 231 252 270 276 282 290 295
251 248 247 245 240 254 277 251 216 198 199 202 197 191 192 196 186 186 223 222 194 190 172 179 180 170 160 147 147 153 159 167 176 183 192 199 213 226 244 258 268 279 284 290
253 250 249 250 217 217 252 269 235 197 192 198 205 196 176 174 209 226 211 196 186 169 166 180 173 167 155 139 148 155 164 174 181 186 196 205 217 227 240 254 265 274 280 286
241 240 229 201 210 235 230 189 112 109 107 95 91 166 161 174 191 203 180 178 176 149 146 169 166 160 146 144 154 163 170 181 181 182 192 199 210 221 234 248 259 267 276 284
237 234 231 224 221 213 183 166 168 167 147 127 52 54 62 79 122 134 136 143 146 140 137 151 158 150 144 155 165 171 173 184 194 193 194 199 209 214 228 245 259 265 276 283
227 218 212 277 251 193 177 174 178 186 181 182 186 159 123 117 120 120 123 126 130 129 132 134 140 145 151 156 161 169 173 178 181 182 192 202 209 221 231 239 253 265 274 280